• Join FlightAware (Why Join?)
  • Login
  • US Flag 
03:59AM EDT


 

Airport Tracker/Info


-or-


 

Live Flight TrackerFlight Track Log ✈ EJA982 ✈ 23-Apr-2013 ✈ KHPN - KBKL

Flight Track Log - Related Links

Times and Time Zones

All times are in EDT time to prevent confusion due to time zone crossing. See the EJA982 flight status page for this flight to view local times or setup timezone preferences in your user account.

Time Position Orientation Groundspeed Altitude Reporting Facility
EDT Latitude Longitude Course Direction KTS MPH feet Rate Location/Type
11:56AM 41.0833 -73.7333 270° West 186 214 1,900  Level New York TRACON
11:57AM 41.0833 -73.8000 270° West 251 289 5,000 3,180 Climbing New York TRACON
11:58AM 41.0667 -73.9000 258° West 278 320 8,000 2,700 Climbing New York TRACON
11:59AM 41.0333 -74.0000 246° West 298 343 10,500 2,640 Climbing New York TRACON
12:00PM 40.9833 -74.1167 240° Southwest 347 399 13,400 2,400 Climbing New York TRACON
12:01PM 40.9367 -74.3419 255° West 375 432 17,100 1,860 Climbing New York Center
12:02PM 40.9322 -74.4928 268° West 414 476 18,500 1,740 Climbing New York Center
12:03PM 40.9192 -74.6347 263° West 424 488 20,700 2,280 Climbing New York Center
12:04PM 40.8978 -74.7792 259° West 424 488 23,200 2,460 Climbing New York Center
12:05PM 40.8736 -74.9314 258° West 424 488 25,700 2,520 Climbing New York Center
12:06PM 40.8519 -75.0781 259° West 424 488 28,200 2,400 Climbing New York Center
12:07PM 40.8294 -75.2303 259° West 424 488 30,600 1,800 Climbing New York Center
12:08PM 40.8006 -75.3875 256° West 434 499 31,900 1,140 Climbing New York Center
12:09PM 40.7747 -75.5639 259° West 445 512 32,900 960 Climbing New York Center
12:10PM 40.7469 -75.7344 258° West 461 531 33,900 1,200 Climbing New York Center
12:11PM 40.7231 -75.9053 260° West 475 547 35,300 1,020 Climbing New York Center
12:12PM 40.6903 -76.0753 256° West 480 552 36,000 300 Climbing New York Center
12:13PM 40.6697 -76.2542 261° West 490 564 36,000  Level New York Center
12:14PM 40.6908 -76.4256 279° West 478 550 36,000  Level New York Center
12:15PM 40.7181 -76.5950 282° West 478 550 36,000  Level New York Center
12:16PM 40.7428 -76.7669 281° West 483 556 36,000  Level New York Center
12:17PM 40.7675 -76.9361 281° West 477 549 36,000  Level New York Center
12:18PM 40.7919 -77.1056 281° West 472 543 36,000  Level New York Center
12:19PM 40.8158 -77.2781 280° West 472 543 36,000  Level New York Center
12:21PM 40.8569 -77.5603 281° West 497 572 36,000 -180 Level Cleveland Center
12:22PM 40.8781 -77.7353 279° West 486 559 35,500 -1,500 Descending Cleveland Center
12:23PM 40.9008 -77.8992 280° West 476 548 33,000 -1,800 Descending Cleveland Center
12:24PM 40.9253 -78.0575 282° West 458 527 32,000 -600 Descending Cleveland Center
12:25PM 40.9536 -78.2186 283° West 452 520 31,900 -600 Descending Cleveland Center
12:26PM 40.9819 -78.3800 283° West 452 520 30,800 -960 Descending Cleveland Center
12:27PM 41.0081 -78.5442 282° West 452 520 30,000 -420 Descending Cleveland Center
12:28PM 41.0358 -78.7058 283° West 452 520 30,000  Level Cleveland Center
12:29PM 41.0611 -78.8703 282° West 452 520 30,000 -600 Level Cleveland Center
12:30PM 41.0864 -79.0267 282° West 452 520 28,900 -1,500 Descending Cleveland Center
12:31PM 41.1092 -79.1806 281° West 438 504 27,000 -1,920 Descending Cleveland Center
12:32PM 41.1342 -79.3453 281° West 438 504 25,100 -1,920 Descending Cleveland Center
12:33PM 41.1586 -79.5103 281° West 454 522 23,200 -1,980 Descending Cleveland Center
12:34PM 41.1831 -79.6672 282° West 454 522 21,200 -1,980 Descending Cleveland Center
12:35PM 41.2069 -79.8242 281° West 444 511 19,300 -1,800 Descending Cleveland Center
12:36PM 41.2308 -79.9842 281° West 444 511 17,600 -1,740 Descending Cleveland Center
12:37PM 41.2544 -80.1331 282° West 433 498 15,900 -1,380 Descending Cleveland Center
12:38PM 41.2758 -80.2764 281° West 420 483 14,900 -1,080 Descending Cleveland Center
12:39PM 41.2969 -80.4394 280° West 415 478 13,800 -1,080 Descending Cleveland Center
12:40PM 41.3158 -80.5858 280° West 406 467 12,800 -1,020 Descending Cleveland Center
12:41PM 41.3469 -80.7242 287° West 400 460 11,800 -1,200 Descending Cleveland Center
12:42PM 41.3761 -80.7961 298° West 316 364 10,800 -1,440 Descending Cleveland Center
12:42PM 41.3886 -80.8294 297° West 366 421 10,400 -1,200 Descending Cleveland Center
12:43PM 41.4114 -80.8961 295° West 266 306 9,500 -1,080 Descending Cleveland Center
12:44PM 41.4381 -80.9903 291° West 280 322 8,500 -1,080 Descending Cleveland Center
12:45PM 41.4586 -81.0903 285° West 285 328 7,400 -1,020 Descending Cleveland Center
12:46PM 41.4831 -81.1844 289° West 259 298 6,500 -960 Descending Cleveland Center
12:47PM 41.5014 -81.2706 286° West 259 298 5,600 -1,020 Descending Cleveland Center
12:47PM 41.5094 -81.2958 293° West 265 305 5,300 -900 Descending Cleveland Center
12:48PM 41.5217 -81.3569 285° West 238 274 4,700 -900 Descending Cleveland Center
12:48PM 41.5278 -81.3819 288° West 254 292 4,400 -900 Descending Cleveland Center
12:49PM 41.5397 -81.4403 285° West 210 242 3,800 -840 Descending Cleveland Center
12:49PM 41.5439 -81.4542 292° West 222 255 3,600 -840 Descending Cleveland Center
12:50PM 41.5581 -81.5100 289° West 211 243 3,000 -900 Descending Cleveland Center
12:50PM 41.5619 -81.5294 285° West 216 249 2,700 -540 Descending Cleveland Center
12:51PM 41.5636 -81.5850 272° West 194 223 2,400 -660 Descending Cleveland Center
12:52PM 41.5403 -81.6344 238° Southwest 137 158 1,500 -900 Descending Cleveland Center
12:54PM 41.5167 -81.6667 North  Level FlightAware Approximate
01:01PM 41.5175 -81.6833 North  Level Estimated